CSN91 ROAH-VHHX

Flight info

Callsign CSN91
Flight time N/A
Altitude 38000
Route LAVON DCT KAORU Y74 BORDO R583 APU A1 ANPOG
Aircraft A339/H-SADE1E2E3GHIJ3J5M1P2RWXY/LB2D1

Departure

Time 2026-04-07 23:18
Airport Naha International Airport (ROAH)

Arrival

Time N/A
Airport Hong Kong International Airport Kai Tak (VHHX)
Time Latitude Longitude Altitude Speed Heading
2026-04-07 23:03 26.20434 127.64857 36 ft 0 kts 47°
2026-04-07 23:04 26.20432 127.64854 36 ft 2 kts 47°
2026-04-07 23:04 26.20422 127.64842 36 ft 2 kts 60°
2026-04-07 23:04 26.20417 127.64826 35 ft 2 kts 79°
2026-04-07 23:05 26.20415 127.64809 35 ft 2 kts 94°
2026-04-07 23:05 26.20418 127.64793 35 ft 2 kts 110°
2026-04-07 23:05 26.20424 127.64778 34 ft 2 kts 126°
2026-04-07 23:05 26.20434 127.64765 34 ft 2 kts 141°
2026-04-07 23:06 26.20447 127.64756 34 ft 2 kts 157°
2026-04-07 23:06 26.20461 127.64751 34 ft 2 kts 173°
2026-04-07 23:06 26.20468 127.64751 34 ft 1 kts 179°
2026-04-07 23:06 26.20470 127.64751 34 ft 0 kts 178°
2026-04-07 23:12 26.20465 127.64751 34 ft 2 kts 178°
2026-04-07 23:12 26.20435 127.64752 34 ft 6 kts 178°
2026-04-07 23:13 26.20375 127.64754 34 ft 10 kts 176°
2026-04-07 23:13 26.20293 127.64761 34 ft 13 kts 177°
2026-04-07 23:13 26.20189 127.64764 34 ft 16 kts 178°
2026-04-07 23:13 26.20069 127.64770 34 ft 18 kts 177°
2026-04-07 23:14 26.19941 127.64777 35 ft 18 kts 177°
2026-04-07 23:14 26.19813 127.64784 36 ft 18 kts 178°
2026-04-07 23:14 26.19689 127.64789 38 ft 17 kts 177°
2026-04-07 23:14 26.19565 127.64796 38 ft 18 kts 177°
2026-04-07 23:15 26.19439 127.64799 38 ft 18 kts 177°
2026-04-07 23:15 26.19311 127.64807 38 ft 18 kts 177°
2026-04-07 23:15 26.19180 127.64814 38 ft 18 kts 178°
2026-04-07 23:15 26.19042 127.64818 36 ft 20 kts 178°
2026-04-07 23:16 26.18898 127.64826 35 ft 20 kts 176°
2026-04-07 23:16 26.18751 127.64835 35 ft 20 kts 178°
2026-04-07 23:16 26.18607 127.64839 34 ft 21 kts 178°
2026-04-07 23:16 26.18454 127.64848 31 ft 22 kts 176°
2026-04-07 23:17 26.18298 127.64852 30 ft 18 kts 191°
2026-04-07 23:17 26.18241 127.64749 28 ft 17 kts 267°
2026-04-07 23:17 26.18254 127.64655 27 ft 6 kts 326°
2026-04-07 23:17 26.18327 127.64645 28 ft 29 kts 357°
2026-04-07 23:18 26.18774 127.64626 32 ft 97 kts 358°
2026-04-07 23:18 26.19658 127.64583 45 ft 152 kts 359°
2026-04-07 23:18 26.20785 127.64516 485 ft 164 kts 359°
2026-04-07 23:18 26.21868 127.64440 1306 ft 155 kts
2026-04-07 23:19 26.22903 127.64370 2064 ft 147 kts
2026-04-07 23:19 26.23888 127.64310 2661 ft 142 kts
2026-04-07 23:19 26.24873 127.64253 3169 ft 141 kts 358°
2026-04-07 23:19 26.25773 127.63802 3591 ft 151 kts 314°
2026-04-07 23:20 26.26407 127.62848 4039 ft 155 kts 308°
2026-04-07 23:20 26.26998 127.61859 4529 ft 155 kts 308°
2026-04-07 23:20 26.27733 127.61047 5014 ft 149 kts 334°
2026-04-07 23:20 26.28678 127.60576 5418 ft 154 kts 339°
2026-04-07 23:21 26.29731 127.60112 5743 ft 169 kts 338°
2026-04-07 23:21 26.30866 127.59585 6075 ft 186 kts 336°
2026-04-07 23:21 26.32101 127.58980 6428 ft 203 kts 335°
2026-04-07 23:21 26.33449 127.58299 6798 ft 220 kts 335°
2026-04-07 23:22 26.34882 127.57565 7166 ft 238 kts 334°
2026-04-07 23:22 26.36455 127.56754 7552 ft 255 kts 334°
2026-04-07 23:22 26.38086 127.55911 8159 ft 261 kts 334°
2026-04-07 23:22 26.39681 127.55019 8868 ft 261 kts 323°
2026-04-07 23:23 26.40944 127.53581 9549 ft 261 kts 302°
2026-04-07 23:23 26.41632 127.51701 10066 ft 272 kts 281°
2026-04-07 23:23 26.41627 127.49542 10585 ft 287 kts 261°
2026-04-07 23:23 26.40800 127.47434 10929 ft 312 kts 237°
2026-04-07 23:24 26.39314 127.45651 11585 ft 319 kts 231°
2026-04-07 23:24 26.37738 127.43892 12340 ft 323 kts 229°
2026-04-07 23:24 26.36034 127.42241 13068 ft 327 kts 224°
2026-04-07 23:24 26.34174 127.40749 13745 ft 334 kts 219°
2026-04-07 23:25 26.32157 127.39439 14410 ft 340 kts 214°
2026-04-07 23:25 26.29988 127.38333 15070 ft 347 kts 208°
2026-04-07 23:25 26.27689 127.37451 15723 ft 353 kts 203°
2026-04-07 23:25 26.25287 127.36820 16366 ft 360 kts 197°
2026-04-07 23:26 26.22798 127.36385 17003 ft 362 kts 198°
2026-04-07 23:26 26.20424 127.35521 17605 ft 352 kts 216°
2026-04-07 23:26 26.18546 127.33897 18221 ft 339 kts 236°
2026-04-07 23:26 26.17362 127.31699 18832 ft 330 kts 255°
2026-04-07 23:27 26.16952 127.29246 19443 ft 325 kts 270°
2026-04-07 23:27 26.16905 127.26734 20064 ft 327 kts 271°
2026-04-07 23:27 26.16845 127.24197 20511 ft 335 kts 271°
2026-04-07 23:27 26.16785 127.21572 20958 ft 342 kts 271°
2026-04-07 23:28 26.16725 127.18909 21533 ft 344 kts 271°
2026-04-07 23:28 26.16666 127.16279 22103 ft 346 kts 271°
2026-04-07 23:28 26.16609 127.13590 22674 ft 348 kts 271°
2026-04-07 23:28 26.16552 127.10907 23210 ft 351 kts 271°
2026-04-07 23:29 26.16494 127.08178 23772 ft 353 kts 271°
2026-04-07 23:29 26.16437 127.05468 24312 ft 355 kts 271°
2026-04-07 23:29 26.16379 127.02734 24866 ft 356 kts 271°
2026-04-07 23:29 26.16320 126.99985 25417 ft 358 kts 272°
2026-04-07 23:30 26.16260 126.97185 25949 ft 360 kts 272°
2026-04-07 23:30 26.16200 126.94415 26469 ft 361 kts 271°
2026-04-07 23:30 26.16140 126.91636 26969 ft 363 kts 272°
2026-04-07 23:30 26.16076 126.88824 27464 ft 365 kts 272°
2026-04-07 23:31 26.16013 126.85997 27953 ft 366 kts 272°
2026-04-07 23:31 26.15950 126.83189 28426 ft 368 kts 272°
2026-04-07 23:31 26.15886 126.80352 28906 ft 369 kts 272°
2026-04-07 23:31 26.15823 126.77498 29359 ft 371 kts 272°
2026-04-07 23:32 26.15760 126.74629 29816 ft 372 kts 272°
2026-04-07 23:32 26.15695 126.71773 30216 ft 374 kts 271°
2026-04-07 23:32 26.15628 126.68846 30601 ft 377 kts 271°
2026-04-07 23:32 26.15560 126.65955 30976 ft 379 kts 271°
2026-04-07 23:33 26.15489 126.62994 31322 ft 382 kts 271°
2026-04-07 23:33 26.15418 126.60046 31688 ft 384 kts 271°
2026-04-07 23:33 26.15346 126.57069 32062 ft 386 kts 270°
2026-04-07 23:33 26.15272 126.54086 32424 ft 387 kts 271°
2026-04-07 23:34 26.15198 126.51118 32776 ft 389 kts 270°
2026-04-07 23:34 26.15124 126.48111 33116 ft 391 kts 270°
2026-04-07 23:34 26.15048 126.45100 33481 ft 392 kts 270°
2026-04-07 23:34 26.14970 126.42077 33968 ft 391 kts 270°
2026-04-07 23:35 26.14892 126.39073 34476 ft 389 kts 270°
2026-04-07 23:35 26.14814 126.36081 34948 ft 387 kts 270°
2026-04-07 23:35 26.14733 126.33081 35383 ft 387 kts 270°
2026-04-07 23:35 26.14655 126.30097 35872 ft 385 kts 270°
2026-04-07 23:36 26.14576 126.27166 36323 ft 384 kts 270°
2026-04-07 23:36 26.14496 126.24180 36651 ft 385 kts 270°
2026-04-07 23:36 26.14417 126.21222 36920 ft 387 kts 270°
2026-04-07 23:36 26.14304 126.18231 37193 ft 389 kts 269°
2026-04-07 23:37 26.14155 126.15223 37483 ft 390 kts 268°
2026-04-07 23:37 26.14000 126.12212 37793 ft 390 kts 269°
2026-04-07 23:37 26.13842 126.09221 38047 ft 392 kts 269°
2026-04-07 23:38 26.13530 126.03156 38086 ft 395 kts 269°
2026-04-07 23:38 26.13214 125.97050 38089 ft 394 kts 269°
2026-04-07 23:39 26.12895 125.90966 38094 ft 394 kts 269°
2026-04-07 23:39 26.12578 125.84888 38088 ft 395 kts 269°
2026-04-07 23:40 26.12257 125.78799 38091 ft 396 kts 269°
2026-04-07 23:40 26.11933 125.72726 38091 ft 396 kts 269°
2026-04-07 23:41 26.11606 125.66606 38092 ft 396 kts 269°
2026-04-07 23:41 26.11278 125.60509 38092 ft 396 kts 268°
2026-04-07 23:42 26.10945 125.54417 38091 ft 396 kts 268°
2026-04-07 23:42 26.10610 125.48325 38088 ft 396 kts 269°
2026-04-07 23:43 26.10272 125.42208 38096 ft 396 kts 269°
2026-04-07 23:43 26.09933 125.36107 38092 ft 396 kts 269°
2026-04-07 23:44 26.09592 125.30024 38094 ft 396 kts 268°
2026-04-07 23:44 26.09245 125.23895 38092 ft 396 kts 268°
2026-04-07 23:45 26.08897 125.17799 38091 ft 396 kts 268°
2026-04-07 23:45 26.08548 125.11710 38089 ft 397 kts 269°
2026-04-07 23:46 26.08194 125.05611 38090 ft 397 kts 269°
2026-04-07 23:46 26.07837 124.99488 38091 ft 397 kts 269°
2026-04-07 23:47 26.07482 124.93389 38089 ft 397 kts 268°
2026-04-07 23:47 26.07122 124.87281 38089 ft 397 kts 268°
2026-04-07 23:48 26.06759 124.81167 38089 ft 397 kts 268°
2026-04-07 23:48 26.06392 124.75082 38090 ft 397 kts 268°
2026-04-07 23:49 26.06022 124.68977 38090 ft 397 kts 269°
2026-04-07 23:49 26.05652 124.62876 38090 ft 397 kts 268°
2026-04-07 23:50 26.05278 124.56740 38091 ft 398 kts 268°
2026-04-07 23:50 26.04899 124.50609 38088 ft 398 kts 268°
2026-04-07 23:51 26.04520 124.44521 38088 ft 398 kts 268°
2026-04-07 23:51 26.04138 124.38409 38089 ft 397 kts 268°
2026-04-07 23:52 26.03750 124.32269 38091 ft 397 kts 268°
2026-04-07 23:52 26.03365 124.26205 38088 ft 396 kts 268°
2026-04-07 23:53 26.02975 124.20090 38091 ft 396 kts 268°
2026-04-07 23:53 26.02583 124.14000 38090 ft 396 kts 268°
2026-04-07 23:54 26.02168 124.07900 38090 ft 397 kts 266°
2026-04-07 23:54 26.01389 124.01856 38090 ft 397 kts 262°
2026-04-07 23:55 26.00110 123.95881 38090 ft 400 kts 258°
2026-04-07 23:55 25.98346 123.89992 38090 ft 403 kts 255°
2026-04-07 23:56 25.96447 123.84160 38089 ft 403 kts 254°
2026-04-07 23:56 25.94537 123.78336 38088 ft 403 kts 254°
2026-04-07 23:57 25.92609 123.72479 38087 ft 404 kts 254°
2026-04-07 23:57 25.90683 123.66652 38086 ft 405 kts 254°
2026-04-07 23:58 25.88736 123.60766 38085 ft 405 kts 254°
2026-04-07 23:58 25.86793 123.54901 38091 ft 406 kts 254°
2026-04-07 23:59 25.84843 123.49034 38096 ft 407 kts 254°
2026-04-07 23:59 25.82887 123.43156 38100 ft 407 kts 254°
2026-04-08 00:00 25.80926 123.37279 38104 ft 407 kts 254°
2026-04-08 00:00 25.78970 123.31422 38106 ft 408 kts 253°
2026-04-08 00:01 25.76990 123.25506 38105 ft 409 kts 253°
2026-04-08 00:01 25.75021 123.19636 38106 ft 410 kts 253°
2026-04-08 00:02 25.73035 123.13715 38103 ft 411 kts 253°
2026-04-08 00:02 25.71048 123.07808 38107 ft 410 kts 253°
2026-04-08 00:03 25.69056 123.01884 38104 ft 409 kts 253°
2026-04-08 00:03 25.66091 122.93072 38104 ft 408 kts 253°
2026-04-08 00:04 25.64115 122.87193 38104 ft 408 kts 253°
2026-04-08 00:04 25.62125 122.81323 38103 ft 409 kts 253°
2026-04-08 00:05 25.60121 122.75437 38101 ft 409 kts 253°
2026-04-08 00:05 25.58115 122.69563 38098 ft 409 kts 253°
2026-04-08 00:06 25.56109 122.63693 38099 ft 410 kts 253°
2026-04-08 00:06 25.54089 122.57788 38098 ft 410 kts 253°
2026-04-08 00:07 25.52071 122.51898 38096 ft 410 kts 253°
2026-04-08 00:07 25.50080 122.46034 38083 ft 410 kts 254°
2026-04-08 00:08 25.48166 122.40085 38077 ft 411 kts 254°
2026-04-08 00:08 25.46258 122.34155 38079 ft 411 kts 253°
2026-04-08 00:09 25.44331 122.28203 38077 ft 412 kts 253°
2026-04-08 00:09 25.42390 122.22227 38076 ft 412 kts 253°
2026-04-08 00:10 25.40379 122.16302 38076 ft 414 kts 252°
2026-04-08 00:10 25.38297 122.10412 38077 ft 413 kts 252°
2026-04-08 00:11 25.36208 122.04490 38074 ft 413 kts 252°
2026-04-08 00:11 25.34126 121.98589 38074 ft 414 kts 252°
2026-04-08 00:12 25.32046 121.92693 38072 ft 414 kts 252°
2026-04-08 00:12 25.29951 121.86769 38068 ft 414 kts 252°
2026-04-08 00:13 25.27868 121.80878 38071 ft 414 kts 252°
2026-04-08 00:13 25.25768 121.74951 38065 ft 415 kts 252°
2026-04-08 00:14 25.23663 121.69019 38064 ft 415 kts 252°
2026-04-08 00:14 25.21569 121.63127 38064 ft 415 kts 252°
2026-04-08 00:15 25.19235 121.57295 38060 ft 417 kts 248°
2026-04-08 00:15 25.16381 121.51679 38056 ft 420 kts 242°
2026-04-08 00:16 25.13028 121.46360 38053 ft 425 kts 238°
2026-04-08 00:16 25.09260 121.41343 38053 ft 426 kts 235°
2026-04-08 00:17 25.05414 121.36339 38050 ft 428 kts 235°
2026-04-08 00:17 25.01576 121.31361 38050 ft 428 kts 234°
2026-04-08 00:18 24.97698 121.26344 38045 ft 429 kts 234°
2026-04-08 00:18 24.93846 121.21369 38047 ft 429 kts 234°
2026-04-08 00:19 24.92552 121.19698 38047 ft 429 kts 234°